METLOCID,DATE_TIME,AVG_RH,STDDEV_RH,MIN_RH,MAX_RH,N_RH
COHM,11/1/93,81.66555556,12.36468761,58.73,99.99,36
COHM,12/1/93,75.69991354,17.73684409,25.7,99.99,1388
COHM,1/1/94,71.15960411,15.71302524,40.54,99.99,682
COHM,2/1/94,75.54874419,16.05816556,50.15,99.99,215
COHM,3/1/94,73.28774194,13.60567828,41.29,97.37,248
COHM,4/1/94,70.46091667,17.61422587,39.7,99.99,240
COHM,5/1/94,75.58439024,14.00879398,43.45,98.52,246
COHM,6/1/94,65.58195833,17.79032507,34.94,97.67,240
COHM,7/1/94,68.55181452,16.85694233,28.78,96.3,248
COHM,8/1/94,63.2203629,14.40545708,39.29,92.95,248
COHM,9/1/94,75.83735294,16.2855852,35.9,91.22,68
COHM,11/1/94,80.84692229,12.8712009,42.19,99.6,978
COHM,12/1/94,71.46551075,17.67586308,34.33,99.99,2232
COHM,1/1/95,76.65855541,16.19261709,36.75,99.99,2229
COHM,2/1/95,71.82016369,21.11736965,23.9,99.99,2016
COHM,3/1/95,75.66894666,17.02712448,42.93,99.99,2231
COHM,4/1/95,73.4297963,16.90971073,36.12,98.2,2160
COHM,5/1/95,72.60350806,16.58086213,35.01,95.35,2232
COHM,6/1/95,61.44975926,16.75692597,29.53,95.89,2160
COHM,7/1/95,63.92217742,15.32589123,30.22,94.56,2232
COHM,8/1/95,59.79469982,16.65367575,28.89,94,2232
COHM,9/1/95,67.15091204,16.58440472,31.05,96.3,2160
COHM,10/1/95,62.66859319,17.85428768,33.4,99.25,2232
COHM,11/1/95,57.76648057,17.37095197,25.03,99.99,2239
COHM,12/1/95,70.43234659,16.91581049,30.17,99.99,2966
COHM,1/1/96,75.88396436,18.53230754,36.07,99.99,2974
COHM,2/1/96,66.12283046,12.24859224,33.44,99.99,2784
COHM,3/1/96,78.24933804,18.46276047,23,99.99,2976
COHM,4/1/96,72.71400694,18.92720592,35.56,99.99,2880
COHM,5/1/96,70.6865793,14.42092521,42.87,97.3,2976
COHM,6/1/96,68.63625694,17.79555675,34.35,98.68,2880
COHM,7/1/96,55.00586022,14.16816443,30.37,92.61,2976
COHM,8/1/96,63.62454637,17.08801684,29.85,98.02,2976
COHM,9/1/96,62.66228472,14.00215907,40.59,97.75,2880
COHM,10/1/96,64.44022513,15.58231016,31.59,98.38,2976
COHM,11/1/96,57.25808397,18.16316594,21.3,95.57,1310
COHM,12/1/96,66.0077302,16.43373124,34.2,99.99,2639
COHM,1/1/97,78.11010265,17.68299312,31.1,99.99,2533
COHM,5/1/97,57.30173565,19.47381706,27.41,95.88,749
COHM,6/1/97,63.52627803,18.16277934,34.98,96.88,1784
COHM,11/1/97,94.13085878,9.463827553,68.96,99.99,524
COHM,12/1/97,84.34698925,14.69193348,30.92,99.99,2976
COHM,1/1/98,83.75735453,13.07336724,35.95,99.99,2956
COHM,2/1/98,78.48518973,17.01721894,33.92,99.99,2688
COHM,3/1/98,72.41572581,16.13447637,41.79,99.83,2976
COHM,4/1/98,70.80386111,13.65331894,45.07,98.44,2880
COHM,5/1/98,73.22690524,15.96495752,33.83,97.5,2976
COHM,6/1/98,70.31198958,16.49606536,36.01,99.99,2880
COHM,7/1/98,69.14983535,16.69858422,33.64,98.52,2976
COHM,8/1/98,66.07273522,13.38732136,34.56,93.69,2976
COHM,9/1/98,72.01413542,12.4440415,39.79,96.06,2880
COHM,10/1/98,68.04494635,18.13392267,26.23,98.55,2796
COHM,11/1/98,68.98101571,13.58895596,33.46,99.99,1910
COHM,12/1/98,71.82312836,18.40929586,24.4,99.99,2976
COHM,1/1/99,76.31206989,16.801635,33.78,99.99,2976
COHM,2/1/99,75.01699033,15.27813921,28.28,99.99,2688
COHM,3/1/99,65.96141465,12.37139216,40.24,99.99,2976
COHM,4/1/99,68.96440972,13.18650559,41,99.24,2880
COHM,5/1/99,58.46968414,14.19232235,31.24,98.67,2976
COHM,6/1/99,70.58660069,20.62368308,32.55,99.99,2880
COHM,7/1/99,64.4396371,18.18291189,35.06,99.99,2976
COHM,8/1/99,60.81895833,17.10283726,35.72,96.3,2976
COHM,9/1/99,68.93206944,18.87439734,37.74,99.99,2880
COHM,10/1/99,57.46609207,18.17613322,23.69,99.48,2976
COHM,11/1/99,68.73229167,18.30430643,32.08,99.99,2880
COHM,12/1/99,70.27004704,15.53925205,27.03,99.99,2976
COHM,1/1/00,72.08432796,16.17039993,21.12,99.99,2976
COHM,2/1/00,71.39346983,20.13198684,23.45,99.99,2784
COHM,3/1/00,72.0084375,23.11763757,24.55,99.99,2976
COHM,4/1/00,69.95913542,19.99751926,32.39,99.99,2880
COHM,5/1/00,68.88135417,21.74428101,26.28,99.99,2976
COHM,6/1/00,65.51771875,19.92445442,23.94,99.99,2880
COHM,7/1/00,58.92559812,23.03674989,20.41,99.99,2976
COHM,8/1/00,57.82755712,23.18568282,18.8,99.99,2976
COHM,9/1/00,58.80341319,22.54061824,13.75,99.99,2880
COHM,10/1/00,68.8834375,17.8680397,27.75,99.99,2976
COHM,11/1/00,67.91417014,21.93933966,24.5,99.99,2880
COHM,12/1/00,74.78263441,15.96887922,31.16,99.99,2976
COHM,1/1/01,77.45789651,16.69487008,25.9,99.99,2976
COHM,2/1/01,68.74381324,18.02750993,16.4,99.99,2688
COHM,3/1/01,68.84301747,19.79947026,16.07,99.99,2976
COHM,4/1/01,72.09069097,22.54921229,25.83,99.99,2880
COHM,5/1/01,63.14762097,21.44591633,17.93,99.99,2976
COHM,6/1/01,65.14090972,20.14857003,28.96,99.99,2880
COHM,7/1/01,60.29926747,20.19824954,23.8,99.99,2976
COHM,8/1/01,68.43746304,22.91460239,22.38,99.99,2976
COHM,9/1/01,61.67907986,21.28883943,19.31,99.99,2880
COHM,10/1/01,54.01660954,15.71366849,20.39,99.99,2976
COHM,11/1/01,61.72279013,15.210431,24.86,99.99,2878
COHM,12/1/01,64.83035618,16.14856507,23.1,99.99,2976
COHM,1/1/02,76.82806452,21.04714698,21.8,99.99,2976
COHM,2/1/02,72.21041295,16.5425612,29.35,99.99,2688
COHM,3/1/02,71.75168347,19.1733762,32.28,99.99,2976
COHM,4/1/02,67.58682292,20.79087806,30.86,99.99,2880
COHM,5/1/02,67.04810148,20.50909767,27.01,99.99,2976
COHM,6/1/02,72.87801736,21.11557025,17.39,99.99,2880
COHM,7/1/02,54.33917675,18.71007526,19.79,99.99,2976
COHM,8/1/02,65.74109543,20.87890551,31.25,99.99,2976
COHM,9/1/02,70.77077431,23.12463966,22.84,99.99,2880
COHM,10/1/02,70.12263105,18.50391683,25.42,99.99,2976
COHM,11/1/02,77.35098264,19.52453555,18.08,99.99,2880
COHM,12/1/02,79.00781849,16.66332984,35.19,99.99,2975
COHM,1/1/03,78.27220766,16.69098968,28.6,99.99,2976
COHM,2/1/03,74.76247396,17.03821577,30.78,99.99,2688
COHM,3/1/03,70.80622648,18.57487399,33.81,99.99,2976
COHM,4/1/03,72.97372569,19.74708467,31.48,99.99,2880
COHM,5/1/03,62.57934476,21.06485756,14.18,99.99,2976
COHM,6/1/03,69.15539931,21.83676352,20.97,99.99,2880
COHM,7/1/03,56.69940524,20.78745187,24.24,99.99,2976
COHM,8/1/03,69.45822581,20.66656185,25.36,99.99,2976
COHM,9/1/03,72.23875,23.79557168,17.69,99.99,2880
COHM,10/1/03,62.33044355,20.7895765,23.98,99.99,2976
COHM,11/1/03,68.79410764,16.98543984,30.18,99.99,2880
COHM,12/1/03,70.1347379,21.02133273,20.4,99.99,2976
COHM,1/1/04,79.47101815,14.96493375,31.2,99.99,2976
COHM,2/1/04,70.43137931,16.23273348,30.48,99.93,2784
COHM,3/1/04,77.0449832,17.60246484,37.09,99.98,2976
COHM,4/1/04,69.56911111,19.94631611,35.94,99.96,2880
COHM,5/1/04,64.35423723,20.7443752,29.97,99.98,2976
COHM,6/1/04,63.99219097,25.77714291,13.24,99.98,2880
COHM,7/1/04,64.60891129,20.35065588,16.38,99.96,2976
COHM,8/1/04,60.16978159,23.06982378,13.04,99.98,2976
COHM,9/1/04,76.85170486,19.40154547,26.23,99.98,2880
COHM,10/1/04,62.98172043,16.68944241,24.68,99.92,2976
COHM,11/1/04,66.87820139,18.61097048,24.51,99.95,2880
COHM,12/1/04,75.35254368,17.67609529,31.92,99.97,2976
COHM,1/1/05,80.22235887,14.17561678,33.92,99.98,2976
COHM,2/1/05,73.37497396,19.45632865,28.4,99.95,2688
COHM,3/1/05,68.1593246,18.41795357,24.54,99.98,2976
COHM,4/1/05,78.47657986,18.6386216,35.9,99.98,2880
COHM,5/1/05,70.79186156,20.38091022,32.77,99.96,2976
COHM,6/1/05,71.36202431,21.29206431,25.78,99.97,2880
COHM,7/1/05,71.17189852,21.07182612,18.91,99.98,2976
COHM,8/1/05,74.38275538,21.1936585,28.88,99.93,2976
COHM,9/1/05,54.39101389,15.46451646,15.86,99.91,2880
COHM,10/1/05,67.61384073,20.43773698,15.31,99.97,2976
COHM,11/1/05,73.09758333,17.87104182,29.27,99.95,2880
COHM,12/1/05,78.77686828,17.72195773,30.03,99.98,2976
COHM,1/1/06,78.13420504,16.44649932,31.54,99.97,2975
COHM,2/1/06,76.71277902,17.10752492,33.74,99.97,2688
COHM,3/1/06,73.42302419,20.22906402,31.53,99.96,2976
COHM,4/1/06,68.30372917,17.2037155,34.79,99.98,2880
COHM,5/1/06,70.24750336,20.43176366,10.61,99.96,2976
COHM,6/1/06,72.19682639,21.48570485,31.73,99.95,2880
COHM,7/1/06,63.61889449,20.15209717,24.78,99.97,2976
COHM,8/1/06,69.83096438,22.64209138,29,99.98,2976
COHM,9/1/06,71.91627778,23.07202086,28.07,99.98,2880
COHM,10/1/06,70.1025672,19.46113742,30.02,99.9,2976
COHM,11/1/06,62.71871528,17.10768013,21.82,99.93,2880
COHM,12/1/06,69.00792675,19.68693731,25.39,99.96,2976
COHM,1/1/07,63.77729839,15.78365684,22.79,99.99,2976
COHM,2/1/07,77.88457589,17.45042948,32.12,99.99,2688
COHM,3/1/07,68.10587702,22.80027697,20.74,99.99,2976
COHM,4/1/07,66.22108333,20.32574961,26.24,99.99,2880
COHM,5/1/07,60.1822547,20.41600465,13.18,99.99,2976
COHM,6/1/07,63.03853472,21.82610689,15.46,99.99,2880
COHM,7/1/07,56.48950269,20.73330451,15.84,99.99,2976
COHM,8/1/07,59.14299395,19.77089589,15.34,99.99,2976
COHM,9/1/07,62.48211458,23.21534431,15.56,99.99,2880
COHM,10/1/07,70.97746304,22.86078001,15.37,99.99,2976
COHM,11/1/07,68.16738889,16.22214687,22.4,99.99,2880
COHM,12/1/07,65.35464046,21.5919918,17.2,99.99,2976
COHM,1/1/08,71.0784375,15.90977829,26.79,99.99,2976
COHM,2/1/08,73.01418822,16.10357252,28.12,99.99,2784
COHM,3/1/08,70.71254032,19.40322015,20.47,99.99,2976
COHM,4/1/08,66.45704514,21.94339072,17.27,99.99,2880
COHM,5/1/08,57.83181116,19.30735825,24.14,99.99,2976
COHM,6/1/08,70.34240625,22.33815336,25.38,99.99,2880
COHM,7/1/08,62.81280914,19.5114265,17.84,99.99,2976
COHM,8/1/08,63.61454301,21.44261964,21.63,99.99,2976
COHM,9/1/08,56.41334375,21.35124483,23.32,99.99,2880
COHM,10/1/08,74.55893817,18.95104686,25.9,99.99,2976
COHM,11/1/08,67.45502431,19.23889704,19.32,99.99,2880
COHM,12/1/08,68.14848454,18.0147699,20.89,99.99,2976
COHM,1/1/09,76.91717742,14.98870851,24.09,99.99,2976
COHM,2/1/09,74.20690848,15.5750277,29.12,100,2688
COHM,3/1/09,77.02933132,16.2461553,27.74,99.99,2976
COHM,4/1/09,69.84464236,19.4336206,34.45,99.99,2880
COHM,5/1/09,62.87861895,19.61030988,24.5,99.99,2976
COHM,6/1/09,59.58391319,21.11908572,19.78,99.99,2880
COHM,7/1/09,67.17234543,23.66479349,24.53,99.99,2976
COHM,8/1/09,69.92265121,23.10702076,25.54,99.99,2976
COHM,9/1/09,50.45244792,20.64492819,14.35,99.99,2880
COHM,10/1/09,66.17248656,17.89691106,24.06,99.99,2976
COHM,11/1/09,61.57744444,17.68805002,22.8,100,2880
COHM,12/1/09,74.81612903,17.33014633,28.2,100,2976
COHM,1/1/10,78.84603495,14.25761861,39.4,100,2976
COHM,2/1/10,76.11045387,17.98188474,25.7,100,2688
COHM,3/1/10,72.78450941,17.47791303,36,100,2976
COHM,4/1/10,67.48736111,21.68291769,23,100,2880
COHM,5/1/10,64.71606183,21.59345942,27.6,100,2976
COHM,6/1/10,57.39416667,18.09838192,24,100,2880
COHM,7/1/10,58.10917339,18.86445753,23.8,100,2976
COHM,8/1/10,69.03245968,24.66065382,14.6,100,2976
COHM,9/1/10,68.64090278,22.82239948,24,100,2880
COHM,10/1/10,63.35487231,20.52181008,18.9,100,2976
COHM,11/1/10,57.66413194,17.68183559,19.7,100,2880
COHM,12/1/10,69.48010753,18.58820808,18.5,100,2976
COHM,1/1/11,84.42103495,15.3566276,33.4,100,2976
COHM,2/1/11,75.85011161,15.45912386,33.1,100,2688
COHM,3/1/11,73.52241263,20.59734514,35.8,100,2976
COHM,4/1/11,73.90309028,21.27939042,33,100,2880
COHM,5/1/11,65.64952957,19.14625057,28.6,100,2976
COHM,6/1/11,68.164375,22.73926058,32,100,2880
COHM,7/1/11,61.76824597,22.02483647,24.9,100,2976
COHM,8/1/11,66.26048387,22.5122078,21.7,100,2976
COHM,9/1/11,75.39444444,23.75295006,19.2,100,2880
COHM,10/1/11,67.13538306,23.66151607,15,100,2976
COHM,11/1/11,63.54378472,18.53869407,22.9,100,2880
COHM,12/1/11,71.49512769,18.14248275,18.3,100,2976
COHM,1/1/12,76.2099662,16.4039235,27.47,100,2959
COHM,2/1/12,69.30795618,17.92385293,27.64,100,2784
COHM,3/1/12,67.38183804,22.52782656,26.32,100,2976
COHM,4/1/12,67.68158333,20.9079662,30.67,100,2880
COHM,5/1/12,62.20938844,26.22968581,19.24,100,2976
COHM,6/1/12,65.41988889,22.77314263,12.43,100,2880
COHM,7/1/12,72.78618952,20.18011881,30.89,100,2976
COHM,8/1/12,71.19005712,23.94989174,10.96,100,2976
COHM,9/1/12,66.58530556,18.44692847,27.09,100,2880
COHM,10/1/12,63.47345094,19.1280447,28.78,100,2976
COHM,11/1/12,65.40240625,16.45306196,29.64,100,2880
COHM,12/1/12,75.1975336,16.52660585,30.56,100,2976
COHM,1/1/13,76.60806116,19.01707607,23.63,100,2976
COHM,2/1/13,72.95451265,16.97396315,31.09,100,2688
COHM,3/1/13,74.16612231,18.70763215,32.57,100,2976
COHM,4/1/13,67.84431944,20.04372948,24.4,100,2880
COHM,5/1/13,71.74949933,21.61139325,28,100,2976
COHM,6/1/13,68.80354514,21.82433767,27.75,100,2880
COHM,7/1/13,73.09750672,20.77926695,29.14,100,2976
COHM,8/1/13,62.55866263,19.08367221,19.68,100,2976
COHM,9/1/13,64.25607292,23.23727618,18.15,100,2880
COHM,10/1/13,72.59218414,19.44526247,29.87,100,2976
COHM,11/1/13,61.54494444,18.6357795,22.64,100,2880
COHM,12/1/13,72.22077957,17.24271236,22.52,100,2976
COHM,1/1/14,72.38207997,18.39442796,25.72,100,2976
COHM,2/1/14,73.90252604,18.43072999,24.14,100,2688
COHM,3/1/14,74.13105511,21.43435014,30.25,100,2976
COHM,4/1/14,75.18198958,22.82907238,15.04,100,2880
COHM,5/1/14,74.36919019,20.97419669,27.75,100,2976
COHM,6/1/14,71.48385417,21.37367779,30.4,100,2880
COHM,7/1/14,67.47157258,17.37517251,32.07,100,2976
COHM,8/1/14,69.82700605,23.45379865,23.54,100,2976
COHM,9/1/14,64.66834722,22.64898482,19.66,100,2880
COHM,10/1/14,73.42400874,22.89000936,24.84,100,2976
COHM,11/1/14,74.8981174,16.31317129,31.98,100,2879
COHM,12/1/14,77.50422715,14.54500725,40.62,100,2976
COHM,1/1/15,74.34500672,17.0056348,25.25,100,2976
COHM,2/1/15,70.61364211,18.88203842,28.82,100,2688
COHM,3/1/15,68.39198589,17.47144248,33.13,100,2976
COHM,4/1/15,77.4482694,20.61454944,30.82,100,2294
COHM,5/1/15,67.68550403,20.33397156,24.48,100,2976
COHM,6/1/15,60.07160069,17.93685369,23.15,100,2880
COHM,7/1/15,68.24568884,23.46612368,21.49,100,2976
COHM,8/1/15,67.49815524,24.1438549,22.3,100,2976
COHM,9/1/15,63.16677745,20.85334196,20.42,100,2678
COHM,10/1/15,71.07960013,20.65901744,17.15,100,2976
COHM,11/1/15,65.92058971,19.51902384,24.65,100,2798
COHM,12/1/15,76.03207801,19.3290659,15.98,100,2974
COHM,1/1/16,77.6468582,18.53728342,27.75,100,2976
COHM,2/1/16,71.94252514,18.29530234,27.13,100,2784
COHM,3/1/16,70.98231183,18.81023311,34.44,100,2976
COHM,4/1/16,73.6819263,19.5421893,39.22,100,1194
COHM,5/1/16,55.94105045,22.97236982,15.56,100,1209
COHM,6/1/16,77.04737847,18.11239734,35.89,100,2880
COHM,7/1/16,70.22439516,17.40796548,25.09,100,2976
COHM,8/1/16,62.84445228,20.75929241,20.38,100,2976
COHM,9/1/16,71.62056944,21.50121604,21.37,100,2880
COHM,10/1/16,71.59706341,19.62084469,28.2,100,2949
COHM,11/1/16,68.25125347,19.74126923,17.65,100,2880
COHM,12/1/16,70.06974798,20.28755472,20.2,100,2976
COHM,1/1/17,75.53523522,16.36337319,22.18,100,2976
COHM,2/1/17,67.42918527,16.44071158,25.06,100,2688
COHM,3/1/17,79.11335349,20.70083988,27.7,100,2976
COHM,4/1/17,57.07829514,15.52985803,27.65,100,2880
COHM,5/1/17,66.72344086,20.08614506,25.97,100,2976
COHM,6/1/17,69.59183681,22.26474478,31.25,100,2880
COHM,7/1/17,62.15135753,23.79501175,21.07,100,2976
COHM,8/1/17,62.86013441,22.9906666,11.82,100,2976
COHM,9/1/17,60.31230903,23.3714437,15.43,100,2880
COHM,10/1/17,71.55737903,23.37570443,17.42,100,2976
COHM,11/1/17,73.68421712,19.13273168,28.56,100,2874
COHM,12/1/17,78.65934476,16.72016727,24.21,100,2976
COHM,1/1/18,77.48952621,16.45490578,32.33,100,2976
COHM,2/1/18,71.97154018,18.65125882,22.26,100,2688
COHM,3/1/18,74.2809375,21.34963476,32.23,100,2976
COHM,4/1/18,62.81349653,21.07615181,16.6,100,2880
COHM,5/1/18,68.13972782,18.86516422,29.58,100,2976
COHM,6/1/18,66.90444792,22.63879492,30.26,100,2880
COHM,7/1/18,63.39178427,23.60265363,23.45,100,2976
COHM,8/1/18,64.0566129,20.42000801,14.17,100,2976
COHM,9/1/18,70.63076389,20.15270494,20.63,100,2880
COHM,10/1/18,67.77149194,21.8558098,26.9,100,2976
COHM,11/1/18,69.34916929,19.03276362,22.58,100,2540